Location: Newark
(35.0033°N, 81.0878°W)
Time: 10:29:20
(UTC+00:00)

Envisat - Pass Details

Date: 22 October 2020
Orbit: 764 x 766 km, 98.1° (Epoch: 03 December)

Event Time Altitude Azimuth Distance (km) Brightness Sun altitude
Rises 22:58:43 0° 178° (S) 3,216 6.4 -4.5°
Reaches altitude 10° 23:01:03 10° 183° (S) 2,294 5.7 -5.0°
Maximum altitude 23:05:59 53° 260° (W) 941 4.0 -6.0°
Drops below altitude 10° 23:10:57 10° 337° (NNW) 2,309 5.7 -7.0°
Sets 23:13:20 0° 342° (NNW) 3,239 6.4 -7.5°
